EW1104 Weather Reports


time (UTC)temp
F
wind
direction
speed
knots
gust
knots
rain 1hr
in
rain 24hr
in
rain mn
in
humidity
%
barometer
mb
20260506201519 61 159 0.0 2.6 0.00 0.02 0.02 92 1006.4
20260506200021 61 219 0.0 1.7 0.00 0.02 0.02 93 1006.6
20260506194511 61 134 0.0 1.7 0.00 0.02 0.02 93 1006.9
20260506193011 60 198 0.0 0.9 0.00 0.02 0.02 92 1007.1
20260506191510 61 151 0.0 0.9 0.00 0.02 0.02 92 1007.2
20260506190007 61 109 0.0 5.2 0.00 0.02 0.02 92 1007.2
20260506184505 61 168 0.0 2.6 0.00 0.02 0.02 92 1007.3
20260506183004 61 229 0.0 0.9 0.00 0.02 0.02 92 1007.3
20260506181503 62 268 0.0 0.0 0.00 0.02 0.02 91 1007.2
20260506180002 62 269 0.0 1.7 0.00 0.02 0.02 91 1007.5
20260506174500 62 156 0.0 0.9 0.00 0.02 0.02 91 1007.8
20260506173130 63 166 0.0 1.7 0.00 0.02 0.02 92 1007.7
20260506171600 62 242 0.0 1.7 0.01 0.02 0.02 91 1007.5
20260506170057 62 41 0.0 0.9 0.02 0.02 0.02 91 1007.6
20260506164554 62 236 0.0 0.9 0.02 0.02 0.02 90 1008.2
20260506163102 62 175 0.0 0.9 0.02 0.02 0.02 89 1008.8
20260506161550 63 172 0.0 0.9 0.01 0.01 0.01 87 1008.9
20260506160049 64 241 0.0 2.6 0.00 0.00 0.00 83 1009.1
20260506154552 65 246 0.0 4.3 0.00 0.00 0.00 79 1009.1
20260506153048 66 158 0.0 4.3 0.00 0.00 0.00 75 1009.1
20260506151546 67 152 0.0 3.5 0.00 0.00 0.00 73 1009.0
20260506150042 68 165 0.0 0.9 0.00 0.00 0.00 72 1009.2
20260506144543 69 163 0.0 1.7 0.00 0.00 0.00 70 1009.2
20260506143039 68 154 0.0 5.2 0.00 0.00 0.00 71 1009.2
20260506141536 67 122 0.0 1.7 0.00 0.00 0.00 75 1009.0
20260506140042 66 191 0.0 5.2 0.00 0.00 0.00 73 1009.1
20260506134534 67 124 0.0 2.6 0.00 0.00 0.00 73 1009.2
20260506133034 66 253 0.0 2.6 0.00 0.00 0.00 73 1009.3
20260506131533 66 222 0.0 3.5 0.00 0.00 0.00 74 1009.2
20260506130032 66 297 0.0 2.6 0.00 0.00 0.00 74 1009.3
20260506124528 66 162 0.0 3.5 0.00 0.00 0.00 76 1009.1
20260506123026 64 264 0.9 3.5 0.00 0.00 0.00 78 1009.0
20260506121526 64 215 0.0 2.6 0.00 0.00 0.00 79 1009.2
20260506120031 64 263 0.0 3.5 0.00 0.00 0.00 79 1009.4
20260506114524 64 231 0.9 3.5 0.00 0.00 0.00 79 1009.6
20260506113020 63 182 0.0 2.6 0.00 0.00 0.00 82 1009.3
20260506111523 62 134 0.0 3.5 0.00 0.00 0.00 83 1009.5
20260506110018 62 217 0.0 2.6 0.00 0.00 0.00 84 1009.3
20260506104517 61 169 0.0 5.2 0.00 0.00 0.00 84 1009.2
20260506103021 61 214 0.0 2.6 0.00 0.00 0.00 84 1009.3
20260506101517 61 194 0.0 6.1 0.00 0.00 0.00 84 1009.3
20260506100016 61 270 0.0 3.5 0.00 0.00 0.00 84 1009.0
20260506094515 61 236 0.0 3.5 0.00 0.00 0.00 85 1009.0
20260506093023 61 256 0.0 0.9 0.00 0.00 0.00 85 1009.0
20260506091516 61 222 0.0 2.6 0.00 0.00 0.00 85 1009.2
20260506090012 61 143 0.0 0.9 0.00 0.00 0.00 84 1009.2
20260506084512 61 232 0.0 2.6 0.00 0.00 0.00 85 1009.3
20260506083008 61 169 0.0 1.7 0.00 0.00 0.00 84 1009.3
20260506081508 61 345 0.0 0.9 0.00 0.00 0.00 84 1009.5
20260506073007 62 210 0.0 1.7 0.00 0.00 0.00 82 1009.6
20260506071500 62 309 0.0 0.9 0.00 0.00 0.00 81 1009.6
20260506061603 63 172 0.0 1.7 0.00 0.00 0.00 78 1010.0
20260506044545 64 172 0.0 0.9 0.00 0.00 0.00 72 1010.3
20260506043050 64 165 0.0 0.9 0.00 0.00 0.00 71 1010.4
20260506041554 64 163 0.0 1.7 0.00 0.00 0.00 70 1010.4
20260506040040 65 172 0.0 3.5 0.00 0.00 0.00 69 1010.4
20260506034540 65 225 0.0 0.9 0.00 0.00 0.00 68 1010.3
20260506033042 65 149 0.0 0.9 0.00 0.00 0.00 67 1010.4
20260506031542 66 179 0.0 1.7 0.00 0.00 0.00 66 1010.3
20260506030038 66 215 0.0 5.2 0.00 0.00 0.00 65 1010.3
20260506024537 67 132 0.0 1.7 0.00 0.00 0.00 64 1010.2
20260506023049 67 280 0.0 2.6 0.00 0.00 0.00 63 1010.3
20260506021536 68 172 0.0 0.9 0.00 0.00 0.00 61 1010.2
20260506020106 69 194 0.0 2.6 0.00 0.00 0.00 58 1010.2
20260506014536 70 253 0.0 2.6 0.00 0.00 0.00 56 1010.0
20260506013035 71 235 0.0 2.6 0.00 0.00 0.00 53 1010.0
20260506011539 71 333 0.0 3.5 0.00 0.00 0.00 51 1009.8
20260506010035 72 248 0.0 2.6 0.00 0.00 0.00 48 1009.5
20260506004541 72 229 0.0 0.9 0.00 0.00 0.00 47 1009.3
20260506003034 73 287 0.0 3.5 0.00 0.00 0.00 45 1009.2
20260506001538 74 298 0.0 4.3 0.00 0.00 0.00 44 1009.1
20260506000051 74 229 0.0 1.7 0.00 0.00 0.00 43 1009.0
20260505234539 75 240 0.0 2.6 0.00 0.00 0.00 40 1008.9
20260505233032 76 91 0.9 4.3 0.00 0.00 0.00 38 1008.7
20260505231532 76 231 0.0 6.1 0.00 0.00 0.00 36 1008.5
20260505230041 77 209 0.0 2.6 0.00 0.00 0.00 36 1008.4
20260505224536 77 215 0.0 3.5 0.00 0.00 0.00 35 1008.2
20260505223034 77 263 0.0 7.8 0.00 0.00 0.00 34 1008.2
20260505221527 78 246 0.0 6.1 0.00 0.00 0.00 32 1008.3
20260505220024 79 250 0.9 7.0 0.00 0.00 0.00 31 1008.2
20260505214524 80 208 0.9 5.2 0.00 0.00 0.00 30 1007.8
20260505213026 81 141 0.9 7.8 0.00 0.00 0.00 30 1007.7
20260505211527 83 245 1.7 7.0 0.00 0.00 0.00 29 1007.6
20260505210013 83 223 0.0 4.3 0.00 0.00 0.00 29 1007.6
20260505204510 83 216 0.9 5.2 0.00 0.00 0.00 29 1007.6
20260505203014 84 212 0.9 6.1 0.00 0.00 0.00 30 1007.7